User: anonymous   Login
Location: Unspecified
(0.0000°N, 0.0000°E)
Time: 02:58:02
(UTC+01:00)
Language:

H-2A R/B - Orbit

View from above orbital plane
View from above orbital plane
View from above satellite
View from above satellite

Ground track
Ground track

The orbit data is extracted from the following two-line orbital elements,

1 28932U 06002B   15084.67817109  .00003469  00000-0  34116-3 0  9999
2 28932 098.2655 322.8945 0094725 096.3856 326.9360 14.89505514496468
Epoch (UTC): 25 March 2015 16:16:33
Eccentricity: 0.0094725
inclination: 98.2655°
perigee height: 533 km
apogee height: 665 km
right ascension of ascending node: 322.8945°
argument of perigee: 96.3856°
revolutions per day: 14.89505514
mean anomaly at epoch: 326.9360°
orbit number at epoch: 49646

The dashed part of the orbit path shows where the satellite is in the earth's shadow,  

DLR